GW3222 Weather Reports


time (UTC)temp
C
wind
direction
speed
KPH
gust
KPH
rain 1hr
cm
rain 24hr
cm
rain mn
cm
humidity
%
barometer
mb
20260510164557 23 204 3.2 11.3 0.00 0.00 0.00 79 1017.8
20260510163108 23 121 6.4 16.1 0.00 0.00 0.00 84 1017.8
20260510161558 22 195 8.0 12.9 0.00 0.00 0.00 85 1018.0
20260510160057 22 192 6.4 16.1 0.00 0.00 0.00 87 1017.9
20260510154550 21 170 3.2 11.3 0.00 0.00 0.00 88 1018.1
20260510153055 21 192 6.4 12.9 0.00 0.00 0.00 88 1018.1
20260510151551 21 189 0.0 4.8 0.00 0.00 0.00 88 1018.0
20260510150056 21 264 1.6 4.8 0.00 0.00 0.00 90 1018.0
20260510144548 20 185 1.6 3.2 0.00 0.13 0.00 92 1017.7
20260510143058 20 147 3.2 6.4 0.00 0.13 0.00 95 1017.8
20260510141552 19 268 1.6 4.8 0.00 0.13 0.00 97 1018.1
20260510140051 18 357 1.6 4.8 0.00 0.13 0.00 98 1017.9
20260510134556 18 74 0.0 6.4 0.00 0.48 0.00 98 1017.6
20260510133052 18 353 0.0 4.8 0.00 0.48 0.00 98 1017.6
20260510131552 18 0 0.0 3.2 0.00 0.48 0.00 98 1017.4
20260510130054 17 50 0.0 6.4 0.00 0.48 0.00 98 1017.3
20260510124554 17 7 0.0 4.8 0.00 0.99 0.00 98 1017.1
20260510123101 17 0 0.0 3.2 0.00 0.99 0.00 98 1016.8
20260510121554 17 345 1.6 4.8 0.00 0.99 0.00 98 1016.7
20260510120054 16 345 0.0 8.0 0.00 0.99 0.00 98 1016.6
20260510114553 16 0 3.2 8.0 0.00 2.16 0.00 98 1016.2
20260510113101 16 4 0.0 4.8 0.00 2.16 0.00 98 1016.2
20260510111559 16 0 0.0 3.2 0.00 2.16 0.00 98 1015.8
20260510110058 16 58 0.0 1.6 0.00 2.16 0.00 98 1015.6
20260510104601 16 0 0.0 1.6 0.00 2.16 0.00 98 1015.2
20260510103056 16 0 0.0 4.8 0.00 2.16 0.00 98 1015.1
20260510101550 16 350 1.6 4.8 0.00 2.16 0.00 98 1014.9
20260510100056 16 47 0.0 3.2 0.00 2.16 0.00 98 1014.9
20260510094555 16 0 1.6 4.8 0.00 2.16 0.00 98 1014.5
20260510093105 16 227 0.0 1.6 0.00 2.16 0.00 98 1014.6
20260510091554 16 0 0.0 1.6 0.00 2.16 0.00 98 1014.7
20260510090051 16 0 0.0 0.0 0.00 2.16 0.00 98 1014.5
20260510084553 17 0 0.0 1.6 0.00 2.16 0.00 98 1014.2
20260510083055 17 0 0.0 3.2 0.00 2.16 0.00 97 1014.1
20260510081622 17 0 0.0 4.8 0.00 2.16 0.00 98 1014.0
20260510080051 17 205 0.0 4.8 0.00 2.16 0.00 98 1013.8
20260510074549 17 264 0.0 4.8 0.00 2.16 0.00 97 1013.6
20260510073102 17 225 1.6 3.2 0.00 2.16 0.00 98 1013.6
20260510071551 17 0 0.0 3.2 0.00 2.16 0.00 97 1013.5
20260510070052 17 209 1.6 3.2 0.00 2.16 0.00 97 1013.4
20260510064600 17 0 0.0 1.6 0.00 2.16 0.00 97 1013.3
20260510063058 17 0 0.0 1.6 0.00 2.16 0.00 97 1013.1
20260510061555 17 0 0.0 1.6 0.00 2.16 0.00 97 1013.2
20260510060057 17 0 0.0 3.2 0.00 2.16 0.00 97 1013.4
20260510054556 17 352 0.0 1.6 0.00 2.16 0.00 97 1013.5
20260510053115 17 352 0.0 3.2 0.00 2.16 0.00 97 1013.8
20260510051604 17 0 0.0 3.2 0.00 2.16 0.00 97 1013.9
20260510050110 17 145 1.6 6.4 0.00 2.16 0.00 97 1013.9
20260510044606 17 232 0.0 3.2 0.00 2.16 2.16 97 1014.2
20260510043057 17 0 0.0 3.2 0.00 2.16 2.16 97 1014.2
20260510041551 17 0 0.0 3.2 0.00 2.16 2.16 97 1014.1
20260510040053 17 307 0.0 3.2 0.00 2.16 2.16 96 1014.3
20260510034556 18 307 0.0 3.2 0.00 2.16 2.16 96 1014.2
20260510033107 18 0 0.0 3.2 0.00 2.16 2.16 96 1014.0
20260510031554 18 0 0.0 3.2 0.00 2.16 2.16 96 1014.1
20260510030111 18 0 0.0 1.6 0.00 2.16 2.16 96 1014.0
20260510024553 18 0 0.0 3.2 0.00 2.16 2.16 95 1014.1
20260510023052 18 0 0.0 3.2 0.00 2.16 2.16 95 1014.0
20260510021554 18 0 0.0 3.2 0.00 2.16 2.16 95 1014.2
20260510020058 18 0 0.0 8.0 0.00 2.16 2.16 94 1014.1
20260510014602 19 133 6.4 9.7 0.00 2.16 2.16 94 1013.8
20260510013051 19 170 1.6 4.8 0.00 2.16 2.16 94 1014.0
20260510011552 19 160 3.2 6.4 0.00 2.16 2.16 94 1013.7
20260510010052 19 164 4.8 8.0 0.00 2.16 2.16 93 1013.8
20260510004556 20 0 0.0 4.8 0.00 2.16 2.16 93 1013.7
20260510003100 20 179 3.2 8.0 0.00 2.16 2.16 93 1013.2
20260510001556 20 152 4.8 8.0 0.00 2.16 2.16 93 1012.8
20260510000057 20 170 3.2 6.4 0.00 2.16 2.16 92 1012.5
20260509234557 20 0 1.6 3.2 0.00 2.16 2.16 92 1012.7
20260509233059 20 172 4.8 6.4 0.00 2.16 2.16 91 1012.5
20260509231552 20 175 3.2 6.4 0.00 2.16 2.16 92 1012.5
20260509230053 20 191 3.2 8.0 0.00 2.16 2.16 91 1012.4
20260509224553 20 209 3.2 6.4 0.00 2.18 2.16 92 1012.5
20260509223058 20 157 4.8 9.7 0.00 2.18 2.16 92 1012.3
20260509221551 20 137 6.4 11.3 0.00 2.18 2.16 91 1011.9
20260509220056 20 160 4.8 9.7 0.00 2.18 2.16 91 1012.0
20260509214550 21 139 4.8 9.7 0.00 2.29 2.16 90 1011.7
20260509213054 21 201 3.2 8.0 0.00 2.29 2.16 90 1011.8
20260509211557 21 253 1.6 9.7 0.00 2.29 2.16 90 1012.1
20260509210053 21 241 1.6 4.8 0.00 2.29 2.16 90 1012.1
20260509204549 21 214 3.2 8.0 0.00 2.54 2.16 88 1012.0
20260509203058 21 207 4.8 9.7 0.00 2.54 2.16 86 1011.8
20260509201600 22 226 1.6 9.7 0.00 2.54 2.16 86 1011.9
20260509200107 22 292 0.0 4.8 0.00 2.54 2.16 86 1012.0
20260509194552 22 229 6.4 11.3 0.00 2.77 2.16 85 1012.3
20260509193111 21 311 4.8 12.9 0.00 2.77 2.16 88 1012.2
20260509191549 21 293 0.0 4.8 0.00 2.77 2.16 90 1011.9
20260509190052 21 266 1.6 6.4 0.00 2.77 2.16 91 1012.2
20260509184604 20 0 0.0 4.8 0.00 2.92 2.16 91 1011.9
20260509183052 20 286 0.0 4.8 0.00 2.92 2.16 94 1011.9
20260509181555 20 245 0.0 6.4 0.00 2.92 2.16 96 1011.9
20260509180054 19 0 0.0 4.8 0.00 2.92 2.16 97 1012.0
20260509174555 19 284 1.6 4.8 0.00 3.07 2.16 98 1012.2
20260509173106 19 0 1.6 6.4 0.00 3.07 2.16 98 1012.6
20260509171603 18 239 1.6 4.8 0.00 3.07 2.16 98 1012.8
20260509170052 18 195 3.2 6.4 0.00 3.07 2.16 98 1013.1